Kelso-Longview, WA
on Monday, November 5, 2012

Monday
Previous Day Next Day
Daily Summary
 ActualAverage (KSPB)Record (KSPB)
Temperature
Mean Temperature °F °F  
Max Temperature 62°F °F 63°F (2012)
Min Temperature 48°F °F 26°F (2003)
Degree Days
Heating Degree Days 10    
Month to date heating degree days  
Since 1 July heating degree days  
Cooling Degree Days 0    
Month to date cooling degree days  
Year to date cooling degree days  
Growing Degree Days5 (Base °F )  
Moisture
Dew Point 48°F   
Average Humidity 75    
Maximum Humidity 94    
Minimum Humidity 55    
Precipitation
Precipitation 0.00 in in 1.18 in (2006)
Month to date precipitation  
Year to date precipitation  
Wind
Wind Speed 3 mph   
Max Wind Speed 10 mph   
Max Gust Speed mph   
Visibility 10 miles   
Events     

Key: T is trace of precipitation, MM is missing value
Source: NWS Daily Summary
Time(PST)TemperatureDew PointHumidity Pressure Visibility Wind DirectionWind SpeedGust SpeedPrecipitationEvents Conditions
12:15 AM 60.8°F 57.2°F 88% 30.33 in 4.0 miles Calm Calm - N/A   Overcast
12:35 AM 60.8°F 57.2°F 88% 30.33 in 10.0 miles Calm Calm - N/A   Overcast
12:55 AM 60.8°F 57.2°F 88% 30.33 in 10.0 miles North 3.5 mph - N/A   Overcast
1:15 AM 60.8°F 57.2°F 88% 30.31 in 10.0 miles NE 3.5 mph - N/A   Overcast
1:35 AM 60.8°F 55.4°F 82% 30.33 in 10.0 miles NW 5.8 mph - N/A   Overcast
1:55 AM 57.2°F 53.6°F 88% 30.34 in 10.0 miles NNW 4.6 mph - N/A   Overcast
2:15 AM 57.2°F 53.6°F 88% 30.34 in 10.0 miles Calm Calm - N/A   Overcast
2:35 AM 57.2°F 53.6°F 88% 30.34 in 10.0 miles Calm Calm - N/A   Overcast
2:55 AM 57.2°F 53.6°F 88% 30.35 in 10.0 miles Calm Calm - N/A   Overcast
3:15 AM 57.2°F 53.6°F 88% 30.35 in 10.0 miles North 3.5 mph - N/A   Overcast
3:35 AM 57.2°F 53.6°F 88% 30.35 in 10.0 miles Calm Calm - N/A   Overcast
4:15 AM 57.2°F 53.6°F 88% 30.35 in 10.0 miles Calm Calm - N/A   Overcast
4:35 AM 57.2°F 51.8°F 82% 30.36 in 10.0 miles WNW 3.5 mph - N/A   Overcast
4:55 AM 57.2°F 51.8°F 82% 30.36 in 10.0 miles Calm Calm - N/A   Overcast
5:15 AM 55.4°F 51.8°F 88% 30.37 in 3.0 miles North 4.6 mph - N/A   Overcast
5:35 AM 55.4°F 53.6°F 94% 30.36 in 2.0 miles Calm Calm - N/A   Overcast
5:55 AM 55.4°F 50.0°F 82% 30.37 in 8.0 miles North 9.2 mph - N/A   Overcast
6:15 AM 55.4°F 50.0°F 82% 30.37 in 10.0 miles NNW 3.5 mph - N/A   Overcast
6:35 AM 55.4°F 51.8°F 88% 30.37 in 10.0 miles Calm Calm - N/A   Overcast
6:55 AM 55.4°F 51.8°F 88% 30.36 in 10.0 miles Calm Calm - N/A   Overcast
7:15 AM 55.4°F 50.0°F 82% 30.37 in 10.0 miles North 4.6 mph - N/A   Overcast
7:35 AM 55.4°F 50.0°F 82% 30.37 in 10.0 miles North 5.8 mph - N/A   Overcast
7:55 AM 55.4°F 50.0°F 82% 30.37 in 10.0 miles North 3.5 mph - N/A   Overcast
8:15 AM 55.4°F 48.2°F 77% 30.36 in 10.0 miles Calm Calm - N/A   Overcast
8:35 AM 55.4°F 50.0°F 82% 30.37 in 10.0 miles NW 3.5 mph - N/A   Scattered Clouds
8:55 AM 55.4°F 48.2°F 77% 30.38 in 10.0 miles NNW 5.8 mph - N/A   Clear
9:15 AM 57.2°F 48.2°F 72% 30.37 in 10.0 miles North 5.8 mph - N/A   Clear
9:35 AM 57.2°F 46.4°F 67% 30.37 in 10.0 miles North 6.9 mph - N/A   Clear
9:55 AM 57.2°F 48.2°F 72% 30.36 in 10.0 miles NNW 5.8 mph - N/A   Clear
10:15 AM 59.0°F 46.4°F 63% 30.35 in 10.0 miles North 9.2 mph - N/A   Clear
10:35 AM 57.2°F 44.6°F 63% 30.36 in 10.0 miles North 8.1 mph - N/A   Clear
10:55 AM 59.0°F 46.4°F 63% 30.36 in 10.0 miles North 9.2 mph - N/A   Clear
11:15 AM 59.0°F 46.4°F 63% 30.35 in 10.0 miles NNW 10.4 mph - N/A   Clear
11:35 AM 59.0°F 46.4°F 63% 30.35 in 10.0 miles North 5.8 mph - N/A   Clear
11:55 AM 60.8°F 46.4°F 59% 30.34 in 10.0 miles North 8.1 mph - N/A   Clear
12:15 PM 60.8°F 46.4°F 59% 30.34 in 10.0 miles NNW 8.1 mph - N/A   Clear
12:35 PM 60.8°F 46.4°F 59% 30.33 in 10.0 miles NNW 6.9 mph - N/A   Clear
12:55 PM 60.8°F 46.4°F 59% 30.32 in 10.0 miles NNE 5.8 mph - N/A   Clear
1:15 PM 60.8°F 46.4°F 59% 30.31 in 10.0 miles NNE 6.9 mph - N/A   Clear
1:55 PM 62.6°F 46.4°F 55% 30.30 in 10.0 miles North 6.9 mph - N/A   Clear
2:15 PM 62.6°F 46.4°F 55% 30.30 in 10.0 miles North 6.9 mph - N/A   Clear
2:35 PM 60.8°F 46.4°F 59% 30.28 in 10.0 miles North 8.1 mph - N/A   Clear
2:55 PM 60.8°F 46.4°F 59% 30.28 in 10.0 miles NNW 6.9 mph - N/A   Clear
3:15 PM 60.8°F 46.4°F 59% 30.27 in 10.0 miles North 9.2 mph - N/A   Clear
3:35 PM 60.8°F 46.4°F 59% 30.27 in 10.0 miles North 9.2 mph - N/A   Clear
3:55 PM 60.8°F 46.4°F 59% 30.26 in 10.0 miles NNE 6.9 mph - N/A   Clear
4:15 PM 60.8°F 46.4°F 59% 30.26 in 10.0 miles North 6.9 mph - N/A   Clear
4:35 PM 59.0°F 46.4°F 63% 30.26 in 10.0 miles North 5.8 mph - N/A   Clear
4:55 PM 57.2°F 46.4°F 67% 30.25 in 10.0 miles North 4.6 mph - N/A   Clear
5:15 PM 57.2°F 46.4°F 67% 30.25 in 10.0 miles North 3.5 mph - N/A   Clear
5:35 PM 55.4°F 46.4°F 72% 30.24 in 10.0 miles North - - N/A   Clear
5:55 PM 55.4°F 46.4°F 72% 30.24 in 10.0 miles Calm Calm - N/A   Clear
6:15 PM 53.6°F 46.4°F 77% 30.24 in 10.0 miles Calm Calm - N/A   Clear
6:35 PM 53.6°F 46.4°F 77% 30.23 in 10.0 miles NNW 5.8 mph - N/A   Clear
6:55 PM 55.4°F 46.4°F 72% 30.23 in 10.0 miles NNW 6.9 mph - N/A   Clear
7:15 PM 55.4°F 44.6°F 67% 30.22 in 10.0 miles NNW 4.6 mph - N/A   Clear
7:35 PM 53.6°F 44.6°F 72% 30.22 in 10.0 miles NNW 4.6 mph - N/A   Clear
7:55 PM 53.6°F 44.6°F 72% 30.21 in 10.0 miles NNW 3.5 mph - N/A   Clear
8:15 PM 53.6°F 44.6°F 72% 30.20 in 10.0 miles North 4.6 mph - N/A   Clear
8:35 PM 51.8°F 44.6°F 76% 30.20 in 10.0 miles Calm Calm - N/A   Clear
8:55 PM 51.8°F 46.4°F 82% 30.20 in 10.0 miles Calm Calm - N/A   Clear
9:15 PM 50.0°F 44.6°F 82% 30.19 in 10.0 miles Calm Calm - N/A   Partly Cloudy
9:35 PM 50.0°F 44.6°F 82% 30.19 in 10.0 miles Calm Calm - N/A   Partly Cloudy
9:55 PM 48.2°F 44.6°F 87% 30.18 in 10.0 miles Calm Calm - N/A   Clear
10:15 PM 48.2°F 44.6°F 87% 30.18 in 10.0 miles Calm Calm - N/A   Mostly Cloudy
10:35 PM 48.2°F 44.6°F 87% 30.17 in 10.0 miles Calm Calm - N/A   Overcast
10:55 PM 50.0°F 44.6°F 82% 30.17 in 10.0 miles Calm Calm - N/A   Overcast
11:15 PM 51.8°F 46.4°F 82% 30.16 in 10.0 miles Calm Calm - N/A   Overcast
11:35 PM 51.8°F 46.4°F 82% 30.16 in 10.0 miles NNW 4.6 mph - N/A   Overcast
11:55 PM 50.0°F 44.6°F 82% 30.15 in 10.0 miles NW 3.5 mph - N/A   Overcast
Moon Phase
Nov. 05 Nov. 06 Nov. 13 Nov. 20 Nov. 28
Sunrise:06:58 AM (PST) Moon Rise:10:34 PM (PST)11/5
Sunset:04:50 PM (PST) Moon Set:12:21 PM (PST)11/5

Copyright © 2014 The Weather Underground, Inc.